Showing default

LEMUR 2 JIN-LUEN, 43182

Orbit data source: Space-Track

LEMUR 2 JIN-LUEN, 43182 is a payload satellite owned by Spire (US) in SSO that was launched on Thu, 01 Feb 2018 UTC via a SOYUZ-2-1A launch vehicle from the Vostochny Cosmodrome (VOSTO). Payload-class satellites include a variety of spacecraft equipped with specific instruments for various scientific and technological missions. These include communications satellites like Starlink; space stations such as the ISS; scientific satellites like the Hubble; Earth observation satellites from companies like Planet Labs, Umbra, and HawkEye 360; GPS; miniature CubeSats for education and research; and military/defense satellites.

Loading next visibility...
Identifier
43182, 2018-014C
Orbit
SSO
Country
Flag of USUS
Related business
Manufacturer
Spire/Glasgow
Mission
Operational Commercial Com/MetRO
Bus & Motor
CUBESAT 3U, Unknown motor
Mass
4.6 kg wet, 4.6 kg dry
Launch date (UTC)
2018-02-01 (8 years ago)
Launch vehicle
SOYUZ-2-1A
Launch site
Vostochny Cosmodrome (VOSTO)
Object type
Payload
Rocket body
Debris
Shape & HBR
Box + 2 Pan, 0.5 m
Radar Cross Section
0.124 m², Small (<0.1 m²)

Expand to show TLE details & history
Last TLE update: 14 hours ago

TLE from 14 hours ago
0 LEMUR 2 JIN-LUEN
1 43182U 18014C   26037.74058336  .00165641  00000-0  14880-2 0  9992
2 43182  97.5462 325.4565 0007245  63.1076 297.0924 15.67709177440601
Epoch: 2026-02-06T17:46Z
TLE epoch observation values (Epoch: 2026-02-06T17:46:26.402Z)
Latitude
-0.00003°
Longitude
-78.02762°
Altitude
366.386 km
Speed
7.691 km/s
True Right ascension
21h 41m 49s
True Declination
0° 00' 00"
Sunlit
Object was in daylight at epoch
Visualization orbit readout
Latitude
Unknown
Longitude
Unknown
Altitude
Unknown
Speed
Unknown
Apparent Right ascension
Unknown
Apparent Declination
Unknown
Sunlit
N/A
Visualization observer readout
Local Sidereal Time
10:12:23
Azimuth
Unknown
Elevation
Unknown
Doppler factor
Unknown
Orbital elements
Apogee altitude
367.251 km
Perigee altitude
357.484 km
Semi-major axis
6,740.504 km
Eccentricity
0.00072
Inclination
97.5462°
RAAN
325.4565°
Arg. of periapsis
63.1076°
True anomaly
297.01846°
Mean anomaly
297.0924°
Eccentric anomaly
297.05543°
Mean motion
3.92197 °/min
Orbital period
91.79 mins
BSTAR
0.001488
Loading maneuver chart data...
Computing Atmospheric mass density...
Loading historical data...
Loading historical data...
Loading historical data...
Loading historical data...
Loading historical data...
Loading historical data...
Loading historical data...

Documentation

Showing up to 5 results
|